Elmendorf Air Force Base, AK

8:18 PM AKST on February 10, 2016 (GMT -0900)
Elmendorf Air Force Base

Weather History for PAED - March, 2013

Change the Weather History Date:

Friday, March 8, 2013

  Actual Average Record
Temperature  
Mean Temperature 37 °F -  
Max Temperature 44 °F 30 °F 49 °F (1965)
Min Temperature 30 °F 14 °F -15 °F (1971)
Degree Days  
Heating Degree Days 28    
Moisture  
Dew Point 24 °F    
Average Humidity 61    
Maximum Humidity 71    
Minimum Humidity 49    
Precipitation  
Precipitation 0.00 in - - ()
Sea Level Pressure  
Sea Level Pressure 29.61 in    
Wind  
Wind Speed 7 mph (North)    
Max Wind Speed 15 mph    
Max Gust Speed -    
Visibility 10 miles    
Events      
Averages and records for this station are not official NWS values.
T = Trace of Precipitation, MM = Missing Value Source: NWS Daily Summary

Daily Weather History Graph

Daily Weather History Graph

Search for Another Location

Airport or City:

Trip Planner

Search our weather history database for the weather conditions in past years. The results will help you decide how hot, cold, wet, or windy it might be!

Date:

Astronomy

Mar. 08, 2013 Rise Set
Actual Time 7:36 AM AKST 6:44 PM AKST
Civil Twilight 6:53 AM AKST 7:27 PM AKST
Nautical Twilight 6:03 AM AKST 8:17 PM AKST
Astronomical Twilight 5:11 AM AKST 9:10 PM AKST
Moon 6:12 AM AKST (3/8) 3:11 PM AKST (3/8)
Length of Visible Light 12h 33m
Length of Day
11h 07m
Waning Crescent, 11% of the Moon is Illuminated
Mar 8
Waning Crescent
Mar 11
New
Mar 19
First Quarter
Mar 27
Full
Apr 2
Last Quarter

Hourly Weather History & Observations

Time (AKST) Temp. Windchill Dew Point Humidity Pressure Visibility Wind Dir Wind Speed Gust Speed Precip Events Conditions
12:55 AM 30.2 °F 25.4 °F 21.9 °F 71% 29.55 in 10.0 mi NNW 4.6 mph - N/A   Mostly Cloudy
1:55 AM 32.4 °F 24.0 °F 22.3 °F 66% 29.54 in 10.0 mi NW 10.4 mph - N/A   Partly Cloudy
2:55 AM 30.2 °F 19.3 °F 21.4 °F 70% 29.55 in 10.0 mi WNW 15.0 mph - N/A   Mostly Cloudy
3:55 AM 34.5 °F 28.6 °F 21.7 °F 60% 29.54 in 10.0 mi North 6.9 mph - N/A   Mostly Cloudy
4:55 AM 34.3 °F 25.9 °F 22.8 °F 63% 29.55 in 10.0 mi North 11.5 mph - N/A   Scattered Clouds
5:55 AM 34.0 °F 26.0 °F 22.6 °F 63% 29.55 in 10.0 mi North 10.4 mph - N/A   Mostly Cloudy
6:55 AM 31.6 °F - 23.0 °F 70% 29.57 in 10.0 mi Calm Calm - N/A   Clear
7:55 AM 32.0 °F 25.6 °F 23.2 °F 70% 29.57 in 10.0 mi Variable 6.9 mph - N/A   Scattered Clouds
7:56 AM 32.0 °F 27.5 °F 23.0 °F 69% 29.57 in 10.0 mi Variable 4.6 mph - N/A   Light Drizzle
8:05 AM 32.0 °F 24.2 °F 23.0 °F 69% 29.56 in 10.0 mi NNE 9.2 mph - N/A   Scattered Clouds
8:41 AM 32.0 °F 24.8 °F 23.0 °F 69% 29.55 in 10.0 mi North 8.1 mph - N/A   Partly Cloudy
8:55 AM 34.7 °F 28.8 °F 23.0 °F 62% 29.56 in 10.0 mi Variable 6.9 mph - 0.00 in   Partly Cloudy
9:55 AM 34.7 °F 26.9 °F 23.2 °F 63% 29.57 in 10.0 mi North 10.4 mph - N/A   Mostly Cloudy
10:55 AM 37.8 °F 31.3 °F 24.6 °F 59% 29.60 in 10.0 mi NW 9.2 mph - N/A   Mostly Cloudy
11:55 AM 39.2 °F - 24.6 °F 56% 29.60 in 10.0 mi Calm Calm - N/A   Overcast
12:55 PM 40.8 °F 34.5 °F 25.3 °F 54% 29.60 in 10.0 mi NE 10.4 mph - N/A   Overcast
1:55 PM 41.4 °F 37.6 °F 25.0 °F 52% 29.60 in 10.0 mi North 5.8 mph - N/A   Overcast
2:55 PM 40.5 °F 37.3 °F 26.1 °F 57% 29.60 in 10.0 mi SSE 4.6 mph - N/A   Overcast
3:55 PM 44.8 °F - 26.6 °F 49% 29.61 in 10.0 mi Calm Calm - N/A   Mostly Cloudy
4:55 PM 41.4 °F 35.2 °F 25.2 °F 53% 29.62 in 10.0 mi South 10.4 mph - N/A   Scattered Clouds
5:55 PM 38.7 °F - 27.1 °F 63% 29.65 in 10.0 mi Calm Calm - N/A   Partly Cloudy
6:55 PM 39.9 °F 36.7 °F 21.9 °F 49% 29.66 in 10.0 mi South 4.6 mph - N/A   Clear
7:55 PM 38.3 °F 35.9 °F 23.2 °F 55% 29.68 in 10.0 mi North 3.5 mph - N/A   Mostly Cloudy
8:55 PM 36.3 °F 31.6 °F 25.0 °F 63% 29.70 in 10.0 mi NNE 5.8 mph - N/A   Mostly Cloudy
9:55 PM 36.7 °F 29.9 °F 24.8 °F 62% 29.72 in 10.0 mi NNE 9.2 mph - N/A   Scattered Clouds
10:55 PM 36.7 °F 29.4 °F 24.8 °F 62% 29.73 in 10.0 mi NNE 10.4 mph - N/A   Scattered Clouds
11:55 PM 36.1 °F 29.9 °F 23.5 °F 60% 29.75 in 10.0 mi NNE 8.1 mph - N/A   Mostly Cloudy